This demonstration page uses our WeatherBlox Daily Observations layout. Learn more.

41.55636, -103.73856

Hourly Observations for May 6, 2018

Temp ( °F °C ) Dew Point ( °F °C ) Humidity (%) Winds ( mph kmh ) Pressure ( in mb ) Visibility ( mi km ) Precip ( " mm )
12:53 am 00:53 Clear 51 10.6 44 6.7 77 77 NNE 7 11 30.09 1019 10 16.09344 0 0
1:53 am 01:53 Clear 52 11.1 44 6.7 75 75 Calm 30.09 1019 10 16.09344 0 0
2:53 am 02:53 Clear 48 8.9 45 7.2 89 89 Calm 30.09 1019 10 16.09344 0 0
3:53 am 03:53 Clear 49 9.4 45 7.2 86 86 ENE 3 6 30.12 1020 10 16.09344 0 0
4:53 am 04:53 Clear 47 8.3 45 7.2 93 93 NW 5 7 30.12 1020 10 16.09344 0 0
5:53 am 05:53 Mostly Cloudy 47 8.3 45 7.2 93 93 NW 5 7 30.15 1021 10 16.09344 0 0
6:53 am 06:53 Sunny 48 8.9 46 7.8 93 93 W 7 11 30.18 1022 10 16.09344 0 0
7:53 am 07:53 Mostly Sunny 54 12.2 48 8.9 80 80 Calm 30.15 1021 10 16.09344 0 0
8:53 am 08:53 Sunny 60 15.6 47 8.3 62 62 E 3 6 30.15 1021 10 16.09344 0 0
9:53 am 09:53 Sunny 65 18.3 48 8.9 54 54 ESE 8 13 30.15 1021 10 16.09344 0 0
10:53 am 10:53 Sunny 69 20.6 48 8.9 47 47 SE 10 17 30.15 1021 10 16.09344 0 0
11:53 am 11:53 Sunny 71 21.7 46 7.8 41 41 SE 14 22 30.12 1020 10 16.09344 0 0
12:53 pm 12:53 Sunny 73 22.8 47 8.3 40 40 SSE 13 20 30.12 1020 10 16.09344 0 0
1:53 pm 13:53 Sunny 75 23.9 48 8.9 39 39 ESE 13 20 30.09 1019 10 16.09344 0 0
2:53 pm 14:53 Sunny 76 24.4 47 8.3 36 36 ESE 17 28 30.09 1019 10 16.09344 0 0
3:53 pm 15:53 Sunny 77 25 46 7.8 33 33 SE 15 24 30.06 1018 10 16.09344 0 0
4:53 pm 16:53 Sunny 76 24.4 47 8.3 36 36 ESE 15 24 30.06 1018 10 16.09344 0 0
5:53 pm 17:53 Sunny 76 24.4 48 8.9 37 37 ESE 17 28 30.06 1018 10 16.09344 0 0
6:53 pm 18:53 Mostly Sunny 74 23.3 48 8.9 40 40 ESE 17 28 30.03 1017 10 16.09344 0 0
7:53 pm 19:53 Mostly Sunny 68 20 47 8.3 47 47 SE 9 15 30.06 1018 10 16.09344 0 0
8:53 pm 20:53 Clear 63 17.2 48 8.9 58 58 SE 7 11 30.06 1018 10 16.09344 0 0
9:53 pm 21:53 Clear 61 16.1 48 8.9 63 63 ESE 13 20 30.06 1018 10 16.09344 0 0
10:53 pm 22:53 Clear 60 15.6 48 8.9 65 65 ESE 14 22 30.06 1018 10 16.09344 0 0
11:53 pm 23:53 Clear 57 13.9 48 8.9 72 72 ESE 12 19 30.06 1018 10 16.09344 0 0

Powered by AerisWeather